{"data":{"norad_id":51622,"epoch":"2026-09-20T05:07:19.080192Z","epoch_age_seconds":50375,"freshness":"FRESH","line1":"1 51622U 22012A   26263.21341528 -.00000205  00000+0 -56226-3 0  9990","line2":"2 51622  87.9198 346.9938 0002837 123.4222 236.7181 13.17648698226212","mean_motion":13.17648698,"eccentricity":0.0002837,"inclination_deg":87.9198,"raan_deg":346.9938,"arg_perigee_deg":123.4222,"mean_anomaly_deg":236.7181,"bstar":-0.00056226,"rev_number":22621,"period_min":109.2855783325,"perigee_km":1191.566282576,"apogee_km":1195.8625510699,"semimajor_km":7571.8514168229,"source":"CELESTRAK","updated_at":"2026-09-20T09:00:44.707416Z"}}